Regional Weather Roundup
Issued by NWS

Home | Current Version | Previous Version | Graphics & Text | Print | Product List | Glossary Off
Versions: 1 2 3 4 5 6 7 8 9 10 11 12 13 14 15 16 17 18 19 20 21 22 23 24 25 26 27 28 29 30 31 32 33 34 35 36 37 38 39 40 41 42 43 44 45 46 47 48 49 50

000
ASUS43 KMKX 220621
RWRWI

WISCONSIN REGIONAL WEATHER ROUNDUP
NATIONAL WEATHER SERVICE MILWAUKEE/SULLIVAN WI
1200 AM CST MON DEC 22 2014

NOTE: "FAIR" INDICATES FEW OR NO CLOUDS BELOW 12,000 FEET WITH NO
SIGNIFICANT WEATHER AND/OR OBSTRUCTIONS TO VISIBILITY.

WIZ001-002-006>008-014>016-023>028-220700-
NORTHWEST WISCONSIN

CITY           SKY/WX    TMP DP  RH WIND       PRES   REMARKS
SUPERIOR ARPT  CLOUDY    35  34  96 S5        29.74F WCI  31
6HR MIN TEMP:  34; 6HR MAX TEMP:  35;

ASHLAND        CLOUDY    35  33  92 S5        29.78S WCI  31
6HR MIN TEMP:  32; 6HR MAX TEMP:  35; 6HR PCP:  0.01;

HAYWARD        LGT RAIN  35  32  88 S9        29.76S FOG     WCI  28
6HR MIN TEMP:  33; 6HR MAX TEMP:  35; 6HR PCP:  0.05;

SIREN          FLURRIES  34  33  97 S7        29.75S WCI  28
6HR MIN TEMP:  34; 6HR MAX TEMP:  35; 6HR PCP:  0.07;

CUMBERLAND     LGT SNOW  32  32 100 SE8       29.76S WCI  25
RICE LAKE      LGT SNOW  33  32  96 SE8       29.79R WCI  26
6HR MIN TEMP:  33; 6HR MAX TEMP:  35; 6HR PCP:  0.03;

CHETEK         MIX PCPN  33  33  98 SE6       29.78S WCI  28
6HR MIN TEMP:  33; 6HR MAX TEMP:  35; 6HR PCP:  0.11;

LADYSMITH      DRIZZLE   35  35  98 SE10G16   29.81S WCI  28
6HR MIN TEMP:  34; 6HR MAX TEMP:  35; 6HR PCP:  0.04;

EAU CLAIRE     CLOUDY    37  34  89 S13       29.80R WCI  29
6HR MIN TEMP:  36; 6HR MAX TEMP:  38; 6HR PCP:  0.02;

MENOMONIE      LGT RAIN  37  36  95 SE7       29.79S WCI  32
6HR MIN TEMP:  37; 6HR MAX TEMP:  38; 6HR PCP:  0.23;

NEW RICHMOND   CLOUDY    36  36 100 SE8       29.74F WCI  29
6HR MIN TEMP:  35; 6HR MAX TEMP:  36; 6HR PCP:  0.10;

OSCEOLA        CLOUDY    36  36 100 SE7       29.76F WCI  30
6HR MIN TEMP:  35; 6HR MAX TEMP:  37; 6HR PCP:  0.08;

$$

WIZ003>005-009-010-017-018-220700-
NORTH CENTRAL WISCONSIN

CITY           SKY/WX    TMP DP  RH WIND       PRES   REMARKS
MANITOWISH WTR LGT SNOW  32  32 100 S9        29.80F WCI  24
6HR MIN TEMP:  32; 6HR MAX TEMP:  32; 6HR PCP:  0.01;

ARBOR VITAE    LGT SNOW  34  32  94 S9        29.81F WCI  27
6HR MIN TEMP:  34; 6HR MAX TEMP:  35; 6HR PCP:  0.02;

WOODRUFF       LGT SNOW  34  32  94 S9        29.81F WCI  27
6HR MIN TEMP:  34; 6HR MAX TEMP:  35; 6HR PCP:  0.02;

RHINELANDER    CLOUDY    32  31  96 S10       29.84S FOG     WCI  24
6HR MIN TEMP:  32; 6HR MAX TEMP:  33; 6HR PCP:  0.03;

EAGLE RIVER    LGT SNOW  32  32  99 S7        29.83S WCI  26
6HR MIN TEMP:  32; 6HR MAX TEMP:  32;

LAND O LAKES   CLOUDY    33  32  96 S7        29.83F WCI  27
6HR MIN TEMP:  32; 6HR MAX TEMP:  33;

PHILLIPS       LGT RAIN  33  32  99 S12G18    29.80S WCI  24
6HR MIN TEMP:  32; 6HR MAX TEMP:  33; 6HR PCP:  0.03;

TOMAHAWK       LGT RAIN  32  32  98 S3        29.84S
6HR MIN TEMP:  32; 6HR MAX TEMP:  32; 6HR PCP:  0.05;

MEDFORD        LGT RAIN  32  32  99 S15       29.83S WCI  22
6HR MIN TEMP:  32; 6HR MAX TEMP:  33;

MERRILL        LGT RAIN  33  33 100 S8        29.86S WCI  26
6HR MIN TEMP:  33; 6HR MAX TEMP:  33; 6HR PCP:  0.02;

$$

WIZ029-030-035-036-043>047-220700-
CENTRAL WISCONSIN

CITY           SKY/WX    TMP DP  RH WIND       PRES   REMARKS
WAUSAU         CLOUDY    33  32  96 S15       29.86S FOG     WCI  23
6HR MIN TEMP:  33; 6HR MAX TEMP:  34; 6HR PCP:  0.02;

MOSINEE        CLOUDY    32  32 100 SE12      29.88S FOG     WCI  23
MARSHFIELD     CLOUDY    34  32  92 S13       29.85S FOG     WCI  25
6HR MIN TEMP:  34; 6HR MAX TEMP:  35; 6HR PCP: TRACE;

STEVENS POINT  CLOUDY    32  30  92 S8        29.89S WCI  25
6HR MIN TEMP:  32; 6HR MAX TEMP:  32;

WAUPACA        CLOUDY    37  31  80 S10       29.93S WCI  29
6HR MIN TEMP:  36; 6HR MAX TEMP:  37;

WAUTOMA        CLOUDY    35  32  89 S13       29.93S WCI  26
6HR MIN TEMP:  35; 6HR MAX TEMP:  36;

WISC RAPIDS    CLOUDY    35  30  82 S9        29.89F WCI  28
6HR MIN TEMP:  35; 6HR MAX TEMP:  35; 6HR PCP: TRACE;

CAMP DOUGLAS   CLOUDY    35  35 100 SE14      29.87F WCI  26
6HR MIN TEMP:  35; 6HR MAX TEMP:  36;

$$

WIZ011>013-019>022-031-037>040-048>050-220700-
NORTHEAST WISCONSIN

CITY           SKY/WX    TMP DP  RH WIND       PRES   REMARKS
ANTIGO         CLOUDY    31  31  99 S10       29.87F FOG     WCI  23
6HR MIN TEMP:  31; 6HR MAX TEMP:  32;

SHAWANO        CLOUDY    37  31  80 S6        29.94S WCI  32
6HR MIN TEMP:  36; 6HR MAX TEMP:  37;

OCONTO         CLOUDY    35  31  87 S8G18     29.96F WCI  28
6HR MIN TEMP:  34; 6HR MAX TEMP:  35;

STURGEON BAY   CLOUDY    36  30  80 S17       29.98F WCI  25
6HR MIN TEMP:  36; 6HR MAX TEMP:  37;

GREEN BAY      CLOUDY    36  30  79 S15       29.96F WCI  27
6HR MIN TEMP:  35; 6HR MAX TEMP:  36;

MANITOWOC      CLOUDY    37  32  82 S16       29.99F WCI  28
6HR MIN TEMP:  37; 6HR MAX TEMP:  37; 6HR PCP: TRACE;

APPLETON       CLOUDY    34  30  86 S14G21    29.94F WCI  24
CLINTONVILLE   CLOUDY    34  30  86 S12       29.93F WCI  25
OSHKOSH        CLOUDY    35  29  78 S10       29.95F WCI  27
6HR MIN TEMP:  35; 6HR MAX TEMP:  36;

$$

WIZ032>034-041-042-053>061-220700-
SOUTHWEST WISCONSIN

CITY           SKY/WX    TMP DP  RH WIND       PRES   REMARKS
LA CROSSE      CLOUDY    38  34  85 S12       29.84F WCI  30
6HR MIN TEMP:  38; 6HR MAX TEMP:  39; 6HR PCP:  0.01;

SPARTA         CLOUDY    36  32  87 S9        29.87S WCI  29
6HR MIN TEMP:  36; 6HR MAX TEMP:  37;

VIROQUA        CLOUDY    34  34 100 S10       29.85S WCI  26
6HR MIN TEMP:  34; 6HR MAX TEMP:  36;

BOSCOBEL       CLOUDY    37  31  78 S7        29.89F WCI  32
6HR MIN TEMP:  37; 6HR MAX TEMP:  39;

PRAIRIE DU CHI CLOUDY    37  32  82 SE9       29.87S WCI  30
6HR MIN TEMP:  37; 6HR MAX TEMP:  39;

PLATTEVILLE    CLOUDY    34  32  92 SE14G20   29.90S WCI  25
6HR MIN TEMP:  34; 6HR MAX TEMP:  36;

$$

WIZ056-057-062-063-064-067-068-220700-
SOUTH CENTRAL WISCONSIN

CITY           SKY/WX    TMP DP  RH WIND       PRES   REMARKS
REEDSBURG      CLOUDY    34  31  88 S7        29.90S WCI  28
6HR MIN TEMP:  34; 6HR MAX TEMP:  36;

BARABOO/DELLS  CLOUDY    34  30  85 S13G22    29.90F WCI  25
6HR MIN TEMP:  34; 6HR MAX TEMP:  35;

LONE ROCK      CLOUDY    39  30  70 S10       29.91F WCI  32
6HR MIN TEMP:  39; 6HR MAX TEMP:  41;

MINERAL POINT  CLOUDY    34  32  93 SE14      29.89S FOG     WCI  24
MADISON        CLOUDY    35  29  78 S16       29.93F WCI  25
6HR MIN TEMP:  35; 6HR MAX TEMP:  37;

MIDDLETON      CLOUDY    36  31  82 S9G17     29.93F WCI  29
6HR MIN TEMP:  36; 6HR MAX TEMP:  37;

WATERTOWN      CLOUDY    34  32  92 SE6       29.96S WCI  29
6HR MIN TEMP:  33; 6HR MAX TEMP:  35;

MONROE         CLOUDY    34  32  93 SE13      29.91F WCI  25
JANESVILLE     CLOUDY    36  30  80 SE10G17   29.96F WCI  28
$$

WIZ051-052-058>065-066-070>072-220700-
SOUTHEAST WISCONSIN

CITY           SKY/WX    TMP DP  RH WIND       PRES   REMARKS
MILWAUKEE      CLOUDY    35  29  78 S10       30.01F WCI  27
6HR MIN TEMP:  35; 6HR MAX TEMP:  37;

WAUKESHA       CLOUDY    32  30  93 SE9       29.99F FOG     WCI  24
MILWAUKEE/TIMM CLOUDY    34  28  80 S10G16    30.01F WCI  26
RACINE         CLOUDY    35  29  78 S15       30.02F WCI  25
6HR MIN TEMP:  35; 6HR MAX TEMP:  38;

BURLINGTON     CLOUDY    32  28  86 SE7       29.98F WCI  26
6HR MIN TEMP:  32; 6HR MAX TEMP:  34;

KENOSHA        MOCLDY    34  28  79 S15       29.99F HAZE    WCI  24
6HR MIN TEMP:  34; 6HR MAX TEMP:  36;

FOND DU LAC    CLOUDY    35  29  78 S10       29.96F WCI  27
6HR MIN TEMP:  35; 6HR MAX TEMP:  36;

SHEBOYGAN      CLOUDY    36  30  79 S14       29.99F WCI  27
6HR MIN TEMP:  35; 6HR MAX TEMP:  36;

WEST BEND      CLOUDY    34  30  86 SE12      29.98S WCI  25
JUNEAU         CLOUDY    33  30  88 SE12      29.97S WCI  25
6HR MIN TEMP:  33; 6HR MAX TEMP:  34;

$$

LSZ147-162-220700-
LAKE SUPERIOR

STATION/POSITION TIME  TEMP    WIND        PRES    WAVE
                       AIR SEA DIR/SP/G            HT/PER
                 (UTC) (F)     (DEG/KT/KT) (MB)    (FT/S)
DEVILS ISLAND    0600   36     170/  9/ 13 1009.2R
PORT WING        0500   36     170/  5/  8 1008.1S
SAXON HARBOR     0500   38     170/  2/  7 1008.8S
$$

LMZ867-665-643>646-220700-
LAKE MICHIGAN

STATION/POSITION TIME  TEMP    WIND        PRES    WAVE


USA.gov is the U.S. government's official web portal to all federal, state and local government web resources and services.